Regional Weather Roundup
Issued by NWS Grand Forks, ND

Home | Current Version | Previous Version | Text Only | Print | Product List | Glossary On
Versions: 1 2 3 4 5 6 7 8 9 10 11 12 13 14 15 16 17 18 19 20 21 22 23 24 25 26 27 28 29 30 31 32 33 34 35 36 37 38 39 40 41 42 43 44 45 46 47 48 49 50
000
ASUS43 KFGF 200531
RWRFGF
PRAIRIE TO PINES  WEATHER ROUNDUP
NATIONAL WEATHER SERVICE EASTERN NORTH DAKOTA/GRAND FORKS ND
1200 AM CDT WED AUG 20 2014

 **SATELLITE DATA USED TO AUGMENT SKY COVER AT AUTOMATED STATIONS**
 *****  WEATHER ACROSS EASTERN NORTH DAKOTA  *****

CITY           SKY/WX    TMP DP  RH WIND       PRES   REMARKS
GRAND FORKS    CLEAR     67  63  87 SE6       29.75S
GRAND FRKS AFB CLEAR     67  66  99 SE5       29.76S
GRAND FRKS NWS   N/A     63 N/A N/A SE3         N/A
DEVILS LAKE    CLEAR     70  63  78 SE10      29.74R
FARGO          CLEAR     68  64  87 SE6       29.77R
WAHPETON ARPT  CLEAR     66  61  82 SE6       29.79S
$$

 ***** WEATHER ACROSS CENTRAL AND WESTERN NORTH DAKOTA  *****

CITY           SKY/WX    TMP DP  RH WIND       PRES   REMARKS
BISMARCK       PTCLDY    69  62  78 E6        29.73S
MINOT          CLEAR     67  60  78 SE5       29.70S
JAMESTOWN      PTCLDY    67  62  84 S3        29.76S
MINOT AFB      CLEAR     64  64  97 SE6       29.69F
GARRISON         N/A     68  65  90 S6        29.71F
WILLISTON      CLEAR     76  60  57 SE5       29.64F
DICKINSON      PTCLDY    68  58  70 SE7       29.69F
HETTINGER      PTCLDY    70  57  63 SE8       29.73F
$$

 *****  OTHER AIRPORT OBSERVATIONS IN OUR AREA  *****

CITY           SKY/WX    TMP DP  RH WIND       PRES   REMARKS
WALHALLA         N/A     66  66 100 S6          N/A
GRAFTON AIRPOR FAIR      66  64  94 SE7       29.75S
VALLEY CITY AR FAIR      68  68 100 S7        29.78S
CANDO          FAIR      64  64 100 SE7       29.75S
CAVALIER APRT  FAIR      66  63  88 SE3       29.75S
GWINNER        CLEAR     68  68 100 SE6       29.79S
SHEYENNE NWR     N/A     64  63  96 E2        29.95S
ROLLA          CLOUDY    57  57 100 CALM      29.77R
 ***** THE ABOVE OBSERVATIONS ARE NON NWS ARE NOT QUALITY
       CONTROLLED AND MAY MIS-REPORT RAIN FOR SNOW...
$$

  *****  WEATHER ACROSS NORTHERN MINNESOTA  *****

CITY           SKY/WX    TMP DP  RH WIND       PRES   REMARKS
FLAG ISLAND    CLEAR     70  63  78 SE8       29.80S
WARROAD        CLOUDY    64  61  88 SE5       29.81S
ROSEAU         PTCLDY    63  57  82 SE3       29.80S
HALLOCK        CLEAR     66  63  88 E5        29.76S
THF RVR FALLS  CLEAR     63  61  94 SE7       29.79S
BAUDETTE       CLEAR     62  60  93 CALM      29.81S
WASKISH        CLEAR     59  57  94 CALM      29.82S
CROOKSTON      CLEAR     64  61  88 SE3       29.78S
$$
  *****  WEATHER ACROSS CENTRAL AND WEST MINNESOTA  *****

CITY           SKY/WX    TMP DP  RH WIND       PRES   REMARKS
FOSSTON        CLEAR     57  54  88 CALM      29.81S
BEMIDJI        CLEAR     62  61  97 SE3       29.82R
PARK RAPIDS    CLEAR     65  62  90 CALM      29.81S
ELBOW LAKE     FAIR      68  64  84 SE3       29.80S
WADENA         CLEAR     63  61  94 CALM      29.82R
DETROIT LAKES  CLEAR     64  63  94 CALM      29.82R
MOORHEAD       CLEAR     70  68  94 SE3       29.78S
FERGUS FALLS   CLEAR     68  61  77 E3        29.79S
MORRIS MN      CLEAR     64  63  94 SE3       29.80S FOG
STAPLES        CLEAR     63  61  94 CALM      29.82S
$$
  *****  WEATHER ELSEWHERE ACROSS MINNESOTA  *****

CITY           SKY/WX    TMP DP  RH WIND       PRES   REMARKS
DULUTH         CLOUDY    64  60  87 E3        29.83R
INTRNTL FALLS  CLEAR     51  51 100 CALM      29.82R
ELY            CLOUDY    61  59  94 CALM      29.83S
CLOQUET        FOG       57  55  94 NW6       29.83S VSB 3/4
WHEATON        CLEAR     63  61  94 SE7       29.80F
BRAINERD       PTCLDY    60  60 100 CALM      29.82S
HIBBING        CLOUDY    57  55  93 CALM      29.83R FOG
ALEXANDRIA     CLEAR     65  62  90 CALM      29.83R
SAINT CLOUD    CLEAR     66  63  90 CALM      29.80S
MINNEAPOLIS    PTCLDY    72  65  78 CALM      29.79S
$$

  *****  WEATHER ACROSS SOUTH DAKOTA  *****

CITY           SKY/WX    TMP DP  RH WIND       PRES   REMARKS
SIOUX FALLS    MOCLDY    71  63  75 CALM      29.81F
BROOKINGS      NOT AVBL
WATERTOWN      PTCLDY    66  62  87 CALM      29.81S
HURON          PTCLDY    68  63  84 SE7       29.77S
SISSETON         N/A     65  64  97 S5        29.78S
ABERDEEN       PTCLDY    65  62  90 SE8       29.77S
MITCHELL       PTCLDY    69  64  84 S6        29.79R
PIERRE         CLOUDY    71  65  81 SE6       29.74R
MOBRIDGE       PTCLDY    71  63  75 SE12      29.72S
RAPID CITY     PTCLDY    66  60  81 SW3       29.75S
$$

  *****  SOME WEATHER IN NEARBY STATES *****

CITY           SKY/WX    TMP DP  RH WIND       PRES   REMARKS
GLASGOW MT     PTCLDY    78  44  29 CALM      29.59F
GREAT FALLS MT MOCLDY    65  46  50 CALM      29.76S
CHEYENNE WY    CLOUDY    63  51  65 W6        29.99F
SCOTTSBLUFF NE MOCLDY    68  58  70 NE5       29.84F
OMAHA NE       MOCLDY    76  64  66 SE7       29.80S
DES MOINES IA  PTCLDY    75  66  73 CALM      29.82S
DAVENPORT IA   CLEAR     65  62  90 W3        29.83R
CHICAGO IL     PTCLDY    72  62  71 W6        29.78R
EAU CLAIRE WI  PTCLDY    64  64 100 N3        29.78S
LA CROSSE WI   PTCLDY    68  64  87 E3        29.78R
$$

  *****  SOME NATIONAL WEATHER *****

CITY           SKY/WX    TMP DP  RH WIND       PRES   REMARKS
LA GUARDIA NY  PTCLDY    72  65  78 S6        29.94S
RALEIGH NC     MOCLDY    73  70  90 CALM      29.90S
ATLANTA GA     MOCLDY    75  71  87 W5        29.98S
NEW ORLEANS LA MOCLDY    81  75  82 CALM      29.99S
OKLAHOMA CITY  PTCLDY    80  67  64 S8        29.89R
ALBUQUERQUE NM MOCLDY    69  52  54 S10       30.04S
SALT LAKE CITY MOCLDY    69  57  65 SE7       29.89R
LOS ANGELES CA CLOUDY    69  60  73 W8        29.89R
BOISE ID       CLOUDY    76  45  33 W6        29.75R
SEATTLE WA     MOCLDY    65  53  65 SW9       29.84R
$$

*** WEATHER ACROSS MANITOBA...SASKATCHEWAN AND ONTARIO ***
                ***ONTARIO***

CITY           SKY/WX    TMP DP  RH WIND       PRES   REMARKS
GERALDTON      PTCLDY    59  57  94 NE2       29.83R
THUNDER BAY    DRIZZLE   59  59 100 SW3       29.80S
SIOUX LOOKOUT  CLEAR     61  59  94 SE5       29.83R
TORONTO        CLOUDY    64  57  77 E7        29.85F
BIG TROUT LK   CLEAR     66  55  68 SE7       29.84R
PICKLE LAKE    NOT AVBL
DRYDEN         CLEAR     59  59 100 CALM      29.83R
KENORA         CLEAR     63  61  94 SE5       29.83R
$$
                *** MANITOBA***

CITY           SKY/WX    TMP DP  RH WIND       PRES   REMARKS
BRANDON        CLEAR     63  61  94 E7        29.73F
DAUPHIN        CLEAR     61  59  94 SE3       29.71S
ISLAND LAKE    PTCLDY    68  63  83 SE3       29.76S
PILOT MOUND      N/A     64  63  94 SE8         N/A
THE PAS        CLEAR     68  63  83 S9        29.62F
THOMPSON       LGT RAIN  64  64 100 NE3       29.67
WINNIPEG       PTCLDY    68  63  83 SE12      29.77S
LYNN LAKE      CLOUDY    57  55  94 MISG      29.70S
CHURCHILL      CLOUDY    46  45  93 SE16G23   29.82R
GILLAM         CLOUDY    64  61  88 SE6       29.70F
$$
                ***SASKATCHEWAN***

CITY           SKY/WX    TMP DP  RH WIND       PRES   REMARKS
ESTEVAN        MOCLDY    68  61  77 SE6       29.68S
KINDERSLEY     CLOUDY    61  59  94 N10       29.65S
LLOYDMINSTER   CLOUDY    63  57  82 W8        29.69R
PRINCE ALBERT  MOCLDY    61  61 100 NE3       29.62
REGINA         TSTM      68  64  88 E13G18    29.64S
YORKTON        CLEAR     66  61  82 SE8       29.67F HAZE
N. BATTLEFORD  MOCLDY    61  59  94 N3        29.66S
LA RONGE       CLEAR     64  63  94 S2        29.64S
SASKATOON      MOCLDY    61  61 100 N9        29.62S
SWIFT CURRENT  CLEAR     63  57  82 S6        29.59F
$$
NOTE: THESE ARE AUTOMATED STATIONS WITH LIMITED QUALITY CONTROL
      "FAIR" INDICATES FEW OR NO CLOUDS BELOW 12,000 FEET WITH NO
      SIGNIFICANT WEATHER AND/OR OBSTRUCTIONS TO VISIBILITY.
      SKY/WX - SKY CONDITION AND SIGNIFICANT WEATHER.
      TMP - AIR TEMPERATURE.    DP   - DEWPOINT TEMPERATURE.
      RH  - RELATIVE HUMIDITY.  PRES - PRESSURE.
      HX  - HEAT INDEX.         WCI  - WIND CHILL INDEX.
$



USA.gov is the U.S. government's official web portal to all federal, state and local government web resources and services.